User: anonymous   Login
Location: Arrington
(35.8681°N, 86.7092°W)
Time: 14:08:32
(UTC+00:00)
Language:

ATLAS 2AS CENTAUR R/B - Orbit

View from above orbital plane
View from above orbital plane
View from above satellite
View from above satellite

Ground track
Ground track

The orbit data is extracted from the following two-line orbital elements,

1 28096U 03054B   20019.21956330 0.00000000  00000-0  00000-0 0    01
2 28096  63.6712 186.7906 0238752 233.8562 126.1438 13.40856270    06
Epoch (UTC): 19 January 2020 05:16:10
Eccentricity: 0.0238752
inclination: 63.6712°
perigee height: 927 km
apogee height: 1285 km
right ascension of ascending node: 186.7906°
argument of perigee: 233.8562°
revolutions per day: 13.40856270
mean anomaly at epoch: 126.1438°
orbit number at epoch: 0

The dashed part of the orbit path shows where the satellite is in the earth's shadow,  

DLR